KO6TH-15 Weather Reports


time (UTC)temp
F
wind
direction
speed
knots
gust
knots
rain 1hr
in
rain 24hr
in
rain mn
in
humidity
%
barometer
mb
20260831111915 55 0 0.0 0.0 0.00 0.00 0.00 78
20260831110845 55 0 0.0 0.0 0.00 0.00 0.00 79
20260831105845 55 0 0.0 0.0 0.00 0.00 0.00 78
20260831104845 55 0 0.0 0.0 0.00 0.00 0.00 78
20260831103815 55 0 0.9 0.0 0.00 0.00 0.00 78
20260831102745 55 0 0.0 0.0 0.00 0.00 0.00 77
20260831101745 55 0 0.0 0.0 0.00 0.00 0.00 78
20260831100715 55 0 0.0 0.0 0.00 0.00 0.00 77
20260831095715 56 0 0.0 0.0 0.00 0.00 0.00 77
20260831094645 56 0 0.0 0.0 0.00 0.00 0.00 77
20260831093645 56 0 0.0 0.0 0.00 0.00 0.00 77
20260831092645 56 0 0.0 0.0 0.00 0.00 0.00 77
20260831091615 56 0 0.0 0.0 0.00 0.00 0.00 77
20260831090615 57 0 0.0 0.0 0.00 0.00 0.00 76
20260831085545 57 0 0.0 0.0 0.00 0.00 0.00 75
20260831084515 57 0 0.0 0.0 0.00 0.00 0.00 75
20260831083445 57 0 0.0 0.0 0.00 0.00 0.00 74
20260831082445 57 0 0.0 0.0 0.00 0.00 0.00 75
20260831081445 58 0 0.0 0.0 0.00 0.00 0.00 74
20260831080415 58 0 0.0 0.0 0.00 0.00 0.00 74
20260831075415 58 0 0.0 0.0 0.00 0.00 0.00 72
20260831074415 59 0 0.0 0.0 0.00 0.00 0.00 73
20260831073415 59 0 0.0 0.0 0.00 0.00 0.00 71
20260831072345 59 0 0.0 0.0 0.00 0.00 0.00 71
20260831071345 60 0 0.0 0.0 0.00 0.00 0.00 71
20260831070315 60 0 0.0 0.0 0.00 0.00 0.00 70
20260831065315 61 0 0.0 0.0 0.00 0.00 0.00 70
20260831064245 61 0 0.0 0.0 0.00 0.00 0.00 71
20260831063215 61 0 0.0 0.0 0.00 0.00 0.00 68
20260831062215 62 0 0.0 0.0 0.00 0.00 0.00 69
20260831061145 62 0 0.0 0.0 0.00 0.00 0.00 70
20260831060115 62 0 0.0 0.0 0.00 0.00 0.00 71
20260831055045 62 0 0.0 0.0 0.00 0.00 0.00 70
20260831054045 63 0 0.0 0.0 0.00 0.00 0.00 69
20260831053015 63 0 0.0 0.0 0.00 0.00 0.00 68
20260831052015 64 0 0.0 0.0 0.00 0.00 0.00 69
20260831050945 64 0 0.0 0.0 0.00 0.00 0.00 68
20260831045915 65 0 0.0 0.0 0.00 0.00 0.00 66
20260831044845 65 0 0.0 0.0 0.00 0.00 0.00 66
20260831043845 66 0 0.0 0.0 0.00 0.00 0.00 65
20260831042815 66 0 0.0 0.0 0.00 0.00 0.00 63
20260831041745 67 0 0.0 0.0 0.00 0.00 0.00 62
20260831040715 68 0 0.0 0.0 0.00 0.00 0.00 59
20260831035645 69 0 0.0 0.0 0.00 0.00 0.00 58
20260831034645 70 0 0.0 0.0 0.00 0.00 0.00 56
20260831033615 71 0 0.0 0.0 0.00 0.00 0.00 55
20260831032545 72 0 0.0 0.0 0.00 0.00 0.00 53
20260831031515 73 0 0.0 0.0 0.00 0.00 0.00 51
20260831030445 75 0 0.0 0.0 0.00 0.00 0.00 50
20260831025445 76 0 0.0 0.0 0.00 0.00 0.00 47
20260831024445 78 0 0.0 0.0 0.00 0.00 0.00 43
20260831023446 79 0 0.0 0.0 0.00 0.00 0.00 42
20260831022445 81 0 0.0 0.0 0.00 0.00 0.00 40
20260831021415 82 0 0.0 0.0 0.00 0.00 0.00 37
20260831020345 84 0 0.9 0.0 0.00 0.00 0.00 35
20260831015345 84 0 0.9 0.0 0.00 0.00 0.00 32
20260831014315 85 0 2.6 0.0 0.00 0.00 0.00 32
20260831013315 86 0 0.9 0.0 0.00 0.00 0.00 31
20260831012245 86 0 0.9 0.0 0.00 0.00 0.00 30
20260831011215 87 0 1.7 0.0 0.00 0.00 0.00 30
20260831010215 88 0 1.7 0.0 0.00 0.00 0.00 30
20260831005215 89 0 0.9 0.0 0.00 0.00 0.00 29
20260831004145 89 0 2.6 0.0 0.00 0.00 0.00 29
20260831003145 90 0 4.3 0.0 0.00 0.00 0.00 28
20260831002145 91 0 1.7 0.0 0.00 0.00 0.00 27
20260831001115 94 0 0.9 0.0 0.00 0.00 0.00 27
20260831000045 95 0 0.9 0.0 0.00 0.00 0.00 26
20260830235015 96 0 3.5 0.0 0.00 0.00 0.00 26
20260830233945 97 0 1.7 0.0 0.00 0.00 0.00 25
20260830232915 96 0 4.3 0.0 0.00 0.00 0.00 26
20260830231845 97 0 1.7 0.0 0.00 0.00 0.00 25
20260830230845 95 0 4.3 0.0 0.00 0.00 0.00 26
20260830225845 95 0 2.6 0.0 0.00 0.00 0.00 27
20260830224815 95 0 1.7 0.0 0.00 0.00 0.00 27
20260830223815 95 0 1.7 0.0 0.00 0.00 0.00 27
20260830222745 95 0 2.6 0.0 0.00 0.00 0.00 28
20260830221745 95 0 3.5 0.0 0.00 0.00 0.00 29
20260830220715 93 0 3.5 0.0 0.00 0.00 0.00 29
20260830215645 94 0 2.6 0.0 0.00 0.00 0.00 30
20260830214615 95 0 3.5 0.0 0.00 0.00 0.00 30
20260830213545 92 0 3.5 0.0 0.00 0.00 0.00 30
20260830212515 94 0 1.7 0.0 0.00 0.00 0.00 30
20260830211515 96 0 2.6 0.0 0.00 0.00 0.00 28
20260830210515 94 0 3.5 0.0 0.00 0.00 0.00 29
20260830205445 94 0 5.2 0.0 0.00 0.00 0.00 30
20260830204445 93 0 2.6 0.0 0.00 0.00 0.00 31
20260830203445 93 0 1.7 0.0 0.00 0.00 0.00 30
20260830202415 91 0 0.9 0.0 0.00 0.00 0.00 32
20260830201345 89 0 4.3 0.0 0.00 0.00 0.00 32
20260830200315 90 0 1.7 0.0 0.00 0.00 0.00 32
20260830195315 90 0 1.7 0.0 0.00 0.00 0.00 32
20260830194315 90 0 3.5 0.0 0.00 0.00 0.00 33
20260830193245 88 0 1.7 0.0 0.00 0.00 0.00 33
20260830192215 88 0 2.6 0.0 0.00 0.00 0.00 33
20260830191145 87 0 4.3 0.0 0.00 0.00 0.00 34
20260830190145 87 0 3.5 0.0 0.00 0.00 0.00 35
20260830185145 85 0 4.3 0.0 0.00 0.00 0.00 36
20260830184115 84 0 3.5 0.0 0.00 0.00 0.00 37
20260830183045 85 0 0.9 0.0 0.00 0.00 0.00 36
20260830182045 85 0 1.7 0.0 0.00 0.00 0.00 37
20260830181045 85 0 0.0 0.0 0.00 0.00 0.00 37
20260830180015 82 0 1.7 0.0 0.00 0.00 0.00 38
20260830174945 79 0 2.6 0.0 0.00 0.00 0.00 39
20260830173915 78 0 2.6 0.0 0.00 0.00 0.00 40
20260830172845 78 0 1.7 0.0 0.00 0.00 0.00 39
20260830171815 75 0 1.7 0.0 0.00 0.00 0.00 42
20260830170745 74 0 0.9 0.0 0.00 0.00 0.00 44
20260830165715 73 0 0.9 0.0 0.00 0.00 0.00 44
20260830164645 73 0 4.3 0.0 0.00 0.00 0.00 44
20260830163645 72 0 1.7 0.0 0.00 0.00 0.00 45
20260830162645 71 0 1.7 0.0 0.00 0.00 0.00 46
20260830161645 71 0 1.7 0.0 0.00 0.00 0.00 46
20260830160645 72 0 1.7 0.0 0.00 0.00 0.00 46
20260830155645 70 0 1.7 0.0 0.00 0.00 0.00 50
20260830154615 67 0 1.7 0.0 0.00 0.00 0.00 54
20260830153615 64 0 0.9 0.0 0.00 0.00 0.00 59
20260830152545 61 0 0.0 0.0 0.00 0.00 0.00 63
20260830151515 58 0 0.0 0.0 0.00 0.00 0.00 73
20260830150515 56 0 0.0 0.0 0.00 0.00 0.00 76
20260830145515 55 0 0.0 0.0 0.00 0.00 0.00 78
20260830144515 52 0 0.0 0.0 0.00 0.00 0.00 82
20260830143445 50 0 0.0 0.0 0.00 0.00 0.00 89
20260830142445 49 0 0.0 0.0 0.00 0.00 0.00 90
20260830141415 48 0 0.0 0.0 0.00 0.00 0.00 88
20260830140415 48 0 0.0 0.0 0.00 0.00 0.00 87
20260830135415 48 0 0.0 0.0 0.00 0.00 0.00 87
20260830134415 48 0 0.0 0.0 0.00 0.00 0.00 87
20260830133345 49 0 0.0 0.0 0.00 0.00 0.00 86
20260830132345 49 0 0.0 0.0 0.00 0.00 0.00 87
20260830131345 49 0 0.0 0.0 0.00 0.00 0.00 86
20260830130345 49 0 0.0 0.0 0.00 0.00 0.00 85
20260830125345 49 0 0.0 0.0 0.00 0.00 0.00 85
20260830124315 50 0 0.0 0.0 0.00 0.00 0.00 84
20260830123315 50 0 0.0 0.0 0.00 0.00 0.00 83
20260830122315 50 0 0.0 0.0 0.00 0.00 0.00 82
20260830121315 50 0 0.0 0.0 0.00 0.00 0.00 83
20260830120245 50 0 0.0 0.0 0.00 0.00 0.00 81
20260830115245 51 0 0.0 0.0 0.00 0.00 0.00 80
20260830114215 51 0 0.0 0.0 0.00 0.00 0.00 79
20260830113145 51 0 0.0 0.0 0.00 0.00 0.00 78